Weather History for Coffeyville, KS

Change the Weather History Date:

Thursday, February 7, 2013

  Actual Average Record
Temperature  
Mean Temperature 46 °F -  
Max Temperature 54 °F 45 °F 73 °F (2009)
Min Temperature 37 °F 26 °F 7 °F (2003)
Degree Days  
Heating Degree Days 20    
Moisture  
Dew Point 48 °F    
Average Humidity 89    
Maximum Humidity 100    
Minimum Humidity 71    
Precipitation  
Precipitation 0.40 in - - ()
Sea Level Pressure  
Sea Level Pressure 29.94 in    
Wind  
Wind Speed 7 mph (North)    
Max Wind Speed 18 mph    
Max Gust Speed 23 mph    
Visibility 6 miles    
Events Fog , Rain , Thunderstorm    
Averages and records for this station are not official NWS values.
T = Trace of Precipitation, MM = Missing Value Source: NWS Daily Summary

Daily Weather History Graph

Daily Weather History Graph

Search for Another Location

Airport:

Trip Planner

Search our weather history database for the weather conditions in past years. The results will help you decide how hot, cold, wet, or windy it might be!

Date:

Astronomy

Feb. 07, 2013 Rise Set
Actual Time 7:19 AM CST 5:54 PM CST
Civil Twilight 6:52 AM CST 6:21 PM CST
Nautical Twilight 6:21 AM CST 6:51 PM CST
Astronomical Twilight 5:51 AM CST 7:22 PM CST
Moon 4:57 AM CST (2/7) 3:21 PM CST (2/7)
Length of Visible Light 11h 28m
Length of Day
10h 34m
Waning Crescent, 9% of the Moon is Illuminated
Feb 7
Waning Crescent
Feb 10
New
Feb 17
First Quarter
Feb 25
Full
Mar 4
Last Quarter

Hourly Weather History & Observations

Time (CST) Temp. Windchill Dew Point Humidity Pressure Visibility Wind Dir Wind Speed Gust Speed Precip Events Conditions
12:06 AM 50.0 °F - 41.0 °F 71% 29.91 in 10.0 mi SSE 8.1 mph - N/A   Mostly Cloudy
12:52 AM 50.0 °F - 42.1 °F 74% 29.90 in 10.0 mi SSE 8.1 mph - N/A   Overcast
1:52 AM 52.0 °F - 43.0 °F 71% 29.88 in 10.0 mi SSE 6.9 mph - N/A   Overcast
2:52 AM 54.0 °F - 46.9 °F 77% 29.87 in 10.0 mi South 12.7 mph 23.0 mph N/A   Overcast
3:34 AM 53.6 °F - 46.4 °F 77% 29.87 in 10.0 mi South 11.5 mph - N/A   Overcast
3:52 AM 53.1 °F - 48.0 °F 83% 29.86 in 10.0 mi South 10.4 mph - N/A   Overcast
4:52 AM 53.1 °F - 48.9 °F 86% 29.86 in 10.0 mi South 8.1 mph - N/A   Overcast
5:52 AM 54.0 °F - 48.9 °F 83% 29.86 in 9.0 mi South 5.8 mph - N/A   Overcast
6:16 AM 53.6 °F - 50.0 °F 88% 29.86 in 4.0 mi South 6.9 mph - N/A   Overcast
6:33 AM 51.8 °F - 51.8 °F 100% 29.87 in 2.0 mi SSW 3.5 mph - N/A   Overcast
6:50 AM 51.8 °F - 50.0 °F 94% 29.86 in 1.5 mi South 3.5 mph - N/A   Overcast
6:52 AM 52.0 °F - 50.0 °F 93% 29.86 in 1.5 mi SSE 3.5 mph - N/A   Overcast
7:22 AM 51.8 °F - 51.8 °F 100% 29.87 in 0.8 mi Calm Calm - N/A   Overcast
7:52 AM 52.0 °F - 50.0 °F 93% 29.88 in 0.5 mi WSW 4.6 mph - N/A Fog , Thunderstorm Fog
8:03 AM 51.8 °F - 51.8 °F 100% 29.89 in 1.0 mi West 4.6 mph - 0.01 in Thunderstorm Overcast
8:12 AM 51.8 °F - 51.8 °F 100% 29.89 in 0.5 mi Calm Calm - 0.10 in Fog , Rain , Thunderstorm Heavy Rain
8:19 AM 51.8 °F - 51.8 °F 100% 29.89 in 1.0 mi NW 3.5 mph - 0.11 in Rain , Thunderstorm Light Rain
8:34 AM 51.8 °F - 51.8 °F 100% 29.89 in 0.8 mi Calm Calm - 0.14 in Rain Light Rain
8:43 AM 51.8 °F - 51.8 °F 100% 29.89 in 1.2 mi Calm Calm - 0.15 in Rain Light Rain
8:52 AM 52.0 °F - 51.1 °F 97% 29.89 in 1.0 mi Calm Calm - 0.15 in   Overcast
9:04 AM 51.8 °F - 51.8 °F 100% 29.90 in 0.8 mi ENE 3.5 mph - N/A   Overcast
9:14 AM 51.8 °F - 51.8 °F 100% 29.90 in 1.0 mi NNE 3.5 mph - N/A   Overcast
9:52 AM 50.0 °F - 48.9 °F 96% 29.93 in 1.0 mi North 10.4 mph - 0.01 in Rain Light Rain
10:11 AM 50.0 °F - 48.2 °F 94% 29.93 in 2.5 mi NNE 9.2 mph - 0.01 in Rain Light Rain
10:19 AM 50.0 °F - 48.2 °F 94% 29.93 in 3.0 mi NNE 9.2 mph - 0.01 in Rain Light Rain
10:26 AM 50.0 °F - 48.2 °F 94% 29.93 in 2.5 mi NE 8.1 mph - 0.01 in Rain Light Rain
10:30 AM 50.0 °F - 48.2 °F 94% 29.93 in 3.0 mi ENE 6.9 mph - 0.01 in Rain Light Rain
10:42 AM 51.8 °F - 50.0 °F 94% 29.94 in 9.0 mi NNE 3.5 mph - 0.01 in Thunderstorm Thunderstorm
10:52 AM 51.1 °F - 50.0 °F 96% 29.93 in 10.0 mi NE 8.1 mph - 0.01 in Rain , Thunderstorm Light Thunderstorms and Rain
11:01 AM 51.8 °F - 48.2 °F 88% 29.93 in 10.0 mi ENE 5.8 mph - 0.00 in Rain Light Rain
11:09 AM 51.8 °F - 50.0 °F 94% 29.93 in 10.0 mi ENE 6.9 mph - 0.00 in   Overcast
11:23 AM 51.8 °F - 50.0 °F 94% 29.95 in 6.0 mi Calm Calm - 0.01 in Rain Rain
11:30 AM 51.8 °F - 50.0 °F 94% 29.94 in 1.8 mi NE 3.5 mph - 0.05 in Rain Heavy Rain
11:43 AM 51.8 °F - 48.2 °F 88% 29.93 in 3.0 mi NNE 5.8 mph - 0.10 in Rain Light Rain
11:52 AM 51.1 °F - 50.0 °F 96% 29.95 in 6.0 mi Calm Calm - 0.10 in Rain Light Rain
12:16 PM 53.6 °F - 51.8 °F 94% 29.93 in 10.0 mi North 8.1 mph - 0.01 in Rain Light Rain
12:33 PM 53.6 °F - 51.8 °F 94% 29.93 in 10.0 mi North 8.1 mph - 0.01 in Rain Light Rain
12:42 PM 53.6 °F - 50.0 °F 88% 29.94 in 10.0 mi NNW 10.4 mph - 0.01 in   Overcast
12:52 PM 53.1 °F - 50.0 °F 89% 29.95 in 10.0 mi NW 9.2 mph - 0.01 in Rain Light Rain
1:09 PM 51.8 °F - 50.0 °F 94% 29.95 in 2.5 mi NW 3.5 mph - 0.05 in Rain Rain
1:21 PM 51.8 °F - 50.0 °F 94% 29.93 in 1.8 mi North 8.1 mph - 0.12 in Rain Heavy Rain
1:32 PM 53.6 °F - 51.8 °F 94% 29.93 in 7.0 mi North 13.8 mph - 0.12 in Rain Light Rain
1:52 PM 53.1 °F - 50.0 °F 89% 29.93 in 7.0 mi North 13.8 mph 19.6 mph 0.12 in Rain Light Rain
2:16 PM 53.6 °F - 50.0 °F 88% 29.94 in 10.0 mi NNW 11.5 mph - 0.00 in   Overcast
2:52 PM 52.0 °F - 48.0 °F 86% 29.96 in 6.0 mi NNW 15.0 mph - 0.00 in   Overcast
3:52 PM 51.1 °F - 46.9 °F 86% 29.97 in 4.0 mi North 15.0 mph - 0.00 in   Overcast
4:02 PM 50.0 °F - 46.4 °F 87% 29.97 in 4.0 mi NNW 18.4 mph - N/A   Overcast
4:09 PM 50.0 °F - 46.4 °F 87% 29.97 in 5.0 mi NNW 13.8 mph - N/A   Mostly Cloudy
4:52 PM 51.1 °F - 43.0 °F 74% 29.99 in 10.0 mi North 16.1 mph 21.9 mph N/A   Clear
5:52 PM 48.9 °F - 42.1 °F 77% 30.02 in 10.0 mi North 8.1 mph - N/A   Clear
6:52 PM 48.0 °F - 41.0 °F 77% 30.05 in 10.0 mi North 13.8 mph - N/A   Clear
7:52 PM 46.0 °F 40.6 °F 37.9 °F 73% 30.08 in 10.0 mi North 11.5 mph - N/A   Clear
8:52 PM 43.0 °F 37.7 °F 37.0 °F 80% 30.11 in 10.0 mi North 9.2 mph - N/A   Clear
9:52 PM 41.0 °F 37.1 °F 36.0 °F 82% 30.14 in 10.0 mi North 5.8 mph - N/A   Clear
10:52 PM 37.9 °F 32.7 °F 34.0 °F 86% 30.16 in 8.0 mi North 6.9 mph - N/A   Clear
11:52 PM 37.9 °F 31.5 °F 34.0 °F 86% 30.19 in 7.0 mi North 9.2 mph - N/A   Clear